Location: Newark
(13.6797°N, 8.5297°E)
Time: 17:50:18
(UTC+00:00)

Altair - Pass Details

Date: 02 February 2020
Orbit: 1502 x 1682 km, 47.2° (Epoch: 22 February)

Event Time Altitude Azimuth Distance (km) Brightness Sun altitude
Rises 02:14:15 0° 197° (SSW) 4,681 - -52.6°
Reaches altitude 10° 02:17:41 10° 187° (S) 3,722 - -51.8°
Exits shadow 02:25:22 33° 132° (SE) 2,433 8.7 -49.9°
Maximum altitude 02:25:50 33° 127° (SE) 2,431 8.7 -49.8°
Drops below altitude 10° 02:34:12 10° 67° (ENE) 3,849 10.0 -47.8°
Sets 02:37:47 0° 58° (ENE) 4,861 10.6 -47.0°
